[[{"header":{"parameterUnit":"m.s-1","parameterCategory":1,"la1":30.2991,"la2":30.254,"lo1":-89.0895,"lo2":-89.0444,"dy":0.0017,"dx":0.0017,"nx":28,"ny":28,"refTime":"2026-03-03T09:00:00:Z","depth":0,"parameterNumber":2,"parameterNumberName":"U-component_of_WINDS"},"data":[0,0,0,0,0,0,0,0,0,0,0,0,0,0,0,0,0,0,0,0,0,0,0,0,0,0,0,0,0,0,0,0,0,0,0,0,0,0,0,0,0,0,0,0,0,0,0,0,0,0,0,0,0,0,0,0,0,0,-2.9893,-2.9893,0,-2.9888,-2.9887,-2.9887,-2.9833,-2.9832,-2.9831,-2.9829,-2.9827,-2.9828,-2.9829,0,0,0,0,0,0,0,0,0,0,0,0,0,-2.9864,-2.9864,-2.9893,-2.9893,-2.9893,-2.9888,-2.9887,-2.9887,-2.9833,-2.9832,-2.983,-2.9829,-2.9826,-2.9828,-2.9829,0,0,0,0,0,0,0,0,0,0,0,0,0,-2.9869,-2.9865,-2.9893,-2.9866,-2.9863,-2.9888,-2.9887,-2.9887,-2.9834,-2.9832,-2.983,-2.9828,-2.9826,-2.9828,-2.983,-2.9881,0,0,-2.9835,-2.9836,0,0,0,0,0,0,0,0,-2.9869,-2.987,-2.987,-2.9868,-2.9865,-2.9859,-2.9876,-2.9886,-2.9834,-2.9845,-2.9829,-2.9827,-2.9839,-2.984,-2.9843,-2.9881,-2.9881,-2.9835,-2.9836,-2.9837,-2.9838,0,0,0,0,0,0,0,-2.9869,-2.987,-2.9891,-2.987,-2.9867,-2.9855,-2.9854,-2.9878,-2.9854,-2.9844,-2.984,-2.984,-2.9838,-2.9842,-2.9843,-2.9881,-2.9835,-2.9837,-2.9838,-2.9839,-2.9964,-2.9966,0,0,0,0,0,0,-2.9871,-2.987,-2.9891,-2.9891,-2.9862,-2.9857,-2.9856,-2.9863,-2.9853,-2.985,-2.9842,-2.9837,-2.984,-2.9841,-2.9843,-2.9903,-2.9837,-2.9839,-2.984,-2.9962,-2.9964,-2.9967,0,0,0,0,0,0,-2.9871,-2.9874,-2.9892,-2.988,-2.9881,-2.986,-2.9869,-2.9864,-2.9868,-2.9852,-2.9848,-2.985,-2.9838,-2.984,-2.9872,-2.9902,-2.984,-2.9841,-2.9959,-2.9962,-2.9966,-3.0024,0,0,0,0,0,0,-2.987,-2.9874,-2.9892,-2.988,-2.9882,-2.992,-2.987,-2.9865,-2.9871,-2.9865,-2.9858,-2.9855,-2.9837,-2.987,-2.9874,-2.9904,-2.9843,-2.9956,-2.9961,-2.9964,-3.002,-3.0029,-3.0038,0,0,0,0,0,-2.9869,-2.9909,-2.9893,-2.9896,-2.9903,-2.9921,-2.9922,-2.9899,-2.9873,-2.9892,-2.9882,-2.9855,-2.9899,-2.9874,-2.9878,-2.9908,-2.9954,-2.9959,-2.9964,-3.0015,-3.0027,-3.0037,0,0,0,0,0,0,-2.9925,-2.9907,-2.9889,-2.9925,-2.9925,-2.9912,-2.9934,-2.9912,-2.992,-2.9915,-2.9888,-2.9887,-2.9923,-2.992,-2.9892,-2.996,-2.9922,-2.9928,-2.996,-2.9971,-2.998,-2.9979,-2.9844,0,0,0,0,0,-2.9941,-2.9956,-2.994,-2.9974,-2.9975,-2.9955,-2.9962,-2.9945,-2.9944,-2.9944,-2.9936,-2.9938,-2.9952,-2.9962,-2.9974,-3.002,-3.0018,-3.0044,-3.0053,-3.006,-3.0065,-3.0091,-3.0102,-2.9983,-2.9983,-2.9983,0,0,-2.9975,-2.9967,-2.9978,-2.9985,-2.9983,-3.0,-2.9955,-2.9975,-2.9988,-2.9947,-2.9976,-2.9972,-2.9972,-3.0012,-3.0029,-3.001,-3.0098,-3.0067,-3.0073,-3.0073,-3.0097,-3.0108,-3.0118,-2.9987,-2.9986,-2.9986,0,0,-3.0045,-3.0041,-3.0069,-3.0068,-3.0065,-3.0053,-3.006,-3.0051,-3.0046,-3.0075,-3.0045,-3.0062,-3.0086,-3.0088,-3.0092,-3.0168,-3.0144,-3.0173,-3.0219,-3.0244,-3.0254,-3.0262,-3.0288,-3.0298,-3.0179,-3.0179,-3.0179,0,-3.0088,-3.0111,-3.0086,-3.0108,-3.0113,-3.0077,-3.0107,-3.0108,-3.011,-3.0115,-3.0094,-3.0125,-3.0123,-3.0163,-3.0182,-3.0187,-3.0195,-3.0172,-3.0254,-3.0262,-3.0269,-3.0294,-3.0305,-3.0182,-3.0182,-3.0181,-3.0181,0,-3.0164,-3.0181,-3.0204,-3.0206,-3.0214,-3.024,-3.0221,-3.0233,-3.0216,-3.0206,-3.0238,-3.0235,-3.0246,-3.0255,-3.0239,-3.0294,-3.0282,-3.0259,-3.022,-3.0284,-3.0308,-3.0317,-3.0187,-3.0186,-3.0185,-3.0184,0,0,-3.0265,-3.0255,-3.0264,-3.0265,-3.0261,-3.0275,-3.0301,-3.0311,-3.0322,-3.0326,-3.0348,-3.0371,-3.035,-3.0355,-3.0339,-3.0362,-3.0422,-3.0335,-3.0335,-3.0351,-3.0484,-3.05,-3.0512,-3.0408,-3.041,-3.0411,-3.0483,0,-3.0331,-3.0372,-3.0352,-3.0396,-3.0413,-3.0381,-3.0404,-3.0406,-3.0399,-3.0413,-3.0406,-3.0423,-3.0393,-3.0396,-3.0417,-3.041,-3.0448,-3.0405,-3.0428,-3.0429,-3.0427,-3.0524,-3.0541,-3.0609,-3.0492,-3.0494,-3.0495,0,-3.0413,-3.042,-3.0465,-3.046,-3.0467,-3.0487,-3.0496,-3.051,-3.0513,-3.0507,-3.0514,-3.0495,-3.0522,-3.0486,-3.0524,-3.0495,-3.0505,-3.0504,-3.0506,-3.0505,-3.0464,-3.0525,-3.063,-3.0639,-3.0509,-3.0508,-3.0507,0,-3.0481,-3.0503,-3.0532,-3.0535,-3.053,-3.0545,-3.0545,-3.0545,-3.0553,-3.0563,-3.0568,-3.0582,-3.0589,-3.06,-3.0586,-3.0561,-3.0627,-3.059,-3.0623,-3.0624,-3.0636,-3.0635,-3.0742,-3.0645,-3.0645,-3.0645,-3.0645,0,-3.0557,-3.0585,-3.0563,-3.0581,-3.0614,-3.0593,-3.0626,-3.0622,-3.0624,-3.0642,-3.0618,-3.0636,-3.0617,-3.0635,-3.0625,-3.0659,-3.0662,-3.0659,-3.0655,-3.066,-3.066,-3.0663,-3.0658,-3.0648,-3.0647,-3.0647,-3.0646,0,-3.0636,-3.0623,-3.0653,-3.0647,-3.0646,-3.067,-3.0666,-3.0684,-3.0677,-3.0701,-3.0706,-3.0695,-3.0714,-3.0702,-3.0723,-3.0716,-3.076,-3.0751,-3.0758,-3.0755,-3.0789,-3.0785,-3.09,-3.0915,-3.081,-3.0811,-3.0812,0,-3.0684,-3.0705,-3.0702,-3.0712,-3.0712,-3.0729,-3.0738,-3.072,-3.073,-3.0737,-3.0755,-3.0772,-3.0785,-3.0818,-3.0813,-3.083,-3.082,-3.086,-3.0822,-3.0827,-3.082,-3.0818,-3.082,-3.0866,-3.0867,-3.0868,-3.0869,0,-3.077,-3.0763,-3.0775,-3.0786,-3.0797,-3.0805,-3.0811,-3.0822,-3.0804,-3.0818,-3.0837,-3.0847,-3.0869,-3.0887,-3.0901,-3.0903,-3.0884,-3.0882,-3.089,-3.0894,-3.0896,-3.0895,-3.0777,-3.0878,-3.0877,-3.0877,-3.0876,-3.0876,-3.0834,-3.0852,-3.0852,-3.0868,-3.0871,-3.0878,-3.0895,-3.089,-3.0906,-3.092,-3.091,-3.0934,-3.0939,-3.0956,-3.0961,-3.0981,-3.0965,-3.0977,-3.098,-3.0983,-3.0987,-3.0896,-3.0984,-3.0983,-3.0983,-3.0983,-3.0983,0,-3.0918,-3.0917,-3.0932,-3.0941,-3.0954,-3.0936,-3.0943,-3.0955,-3.0975,-3.0981,-3.0995,-3.1019,-3.1037,-3.1035,-3.1053,-3.1069,-3.1061,-3.1074,-3.1072,-3.1072,-3.1,-3.0991,-3.108,-3.108,-3.108,-3.108,-3.108,-3.108,-3.0962,-3.0992,-3.0985,-3.1018,-3.1018,-3.1039,-3.1045,-3.1052,-3.1057,-3.1084,-3.1099,-3.1097,-3.1101,-3.1119,-3.1136,-3.1136,-3.1143,-3.1159,-3.1155,-3.1087,-3.1077,-3.1068,-3.1059,-3.1161,-3.1161,-3.1225,-3.1226,-3.1226]},{"header":{"parameterUnit":"m.s-1","parameterCategory":1,"la1":30.2991,"la2":30.254,"lo1":-89.0895,"lo2":-89.0444,"dy":0.0017,"dx":0.0017,"nx":28,"ny":28,"refTime":"2026-03-03T09:00:00:Z","depth":0,"parameterNumber":3,"parameterNumberName":"V-component_of_WINDS"},"data":[0,0,0,0,0,0,0,0,0,0,0,0,0,0,0,0,0,0,0,0,0,0,0,0,0,0,0,0,0,0,0,0,0,0,0,0,0,0,0,0,0,0,0,0,0,0,0,0,0,0,0,0,0,0,0,0,0,0,0.5884,0.5884,0,0.585,0.5849,0.5849,0.5903,0.5905,0.5907,0.5909,0.5869,0.5866,0.5863,0,0,0,0,0,0,0,0,0,0,0,0,0,0.5994,0.5991,0.5884,0.5884,0.5883,0.585,0.5849,0.5849,0.5903,0.5905,0.5908,0.591,0.587,0.5867,0.5863,0,0,0,0,0,0,0,0,0,0,0,0,0,0.5951,0.5991,0.5884,0.5907,0.5908,0.585,0.5849,0.5849,0.5902,0.5905,0.5908,0.5911,0.5871,0.5867,0.5863,0.578,0,0,0.585,0.5848,0,0,0,0,0,0,0,0,0.5954,0.5947,0.5904,0.5905,0.5907,0.5884,0.5873,0.5825,0.5902,0.5904,0.5909,0.5912,0.5871,0.5867,0.5854,0.5778,0.5776,0.5849,0.5847,0.5845,0.5844,0,0,0,0,0,0,0,0.5956,0.5949,0.587,0.5903,0.5905,0.5917,0.5914,0.5864,0.5872,0.5904,0.5908,0.5904,0.5873,0.5858,0.5854,0.5775,0.585,0.5846,0.5843,0.5841,0.5629,0.5626,0,0,0,0,0,0,0.5957,0.5951,0.5872,0.5869,0.5938,0.5913,0.5909,0.5888,0.5873,0.5873,0.5901,0.5906,0.5864,0.5859,0.5853,0.5754,0.5845,0.5841,0.5839,0.5632,0.5628,0.5625,0,0,0,0,0,0,0.5959,0.595,0.5873,0.5911,0.5902,0.5908,0.5883,0.5886,0.5872,0.5871,0.5872,0.5885,0.5866,0.5859,0.5798,0.5754,0.5839,0.5835,0.5636,0.5631,0.5627,0.5557,0,0,0,0,0,0,0.5962,0.595,0.5919,0.591,0.59,0.5819,0.5881,0.5883,0.5865,0.5871,0.5856,0.5856,0.5868,0.5804,0.5793,0.5749,0.5832,0.564,0.5634,0.5628,0.5563,0.5551,0.554,0,0,0,0,0,0.5966,0.59,0.5918,0.5908,0.5862,0.5817,0.5811,0.5827,0.5861,0.583,0.5829,0.5857,0.576,0.5797,0.5786,0.574,0.5642,0.5635,0.5628,0.5569,0.5553,0.554,0,0,0,0,0,0,0.5902,0.5899,0.5919,0.5848,0.5833,0.5826,0.5787,0.581,0.5783,0.579,0.5809,0.5806,0.574,0.5734,0.5775,0.5659,0.5707,0.5697,0.5665,0.565,0.5639,0.5642,0.5828,0,0,0,0,0,0.5881,0.5845,0.5844,0.5782,0.5773,0.5781,0.5762,0.5776,0.576,0.5753,0.5748,0.573,0.5696,0.5673,0.5641,0.5563,0.556,0.5526,0.5514,0.5504,0.5496,0.5453,0.5438,0.5602,0.5602,0.5602,0,0,0.5834,0.5828,0.5805,0.5769,0.5759,0.5721,0.5775,0.5733,0.5704,0.5746,0.5689,0.5684,0.5666,0.5596,0.5565,0.5589,0.545,0.5495,0.5488,0.5484,0.5445,0.5429,0.5415,0.5597,0.5598,0.5599,0,0,0.5731,0.5723,0.5671,0.5659,0.5643,0.5649,0.5637,0.5627,0.5626,0.5569,0.56,0.5566,0.5506,0.5492,0.5477,0.5368,0.5392,0.5357,0.5295,0.5254,0.5241,0.523,0.519,0.5176,0.5349,0.5348,0.5348,0,0.5675,0.562,0.564,0.5596,0.5579,0.5617,0.5563,0.5551,0.5524,0.5511,0.5539,0.5466,0.5456,0.5383,0.5357,0.5343,0.5328,0.5359,0.5242,0.523,0.522,0.5183,0.5168,0.5344,0.5345,0.5345,0.5345,0,0.5552,0.5514,0.5473,0.5449,0.5427,0.5378,0.539,0.5365,0.5381,0.5383,0.5325,0.5314,0.5281,0.5265,0.5279,0.5194,0.5209,0.5239,0.5287,0.52,0.5165,0.5151,0.5338,0.534,0.5341,0.5342,0,0,0.5408,0.5395,0.538,0.5369,0.5355,0.5325,0.5277,0.5246,0.5225,0.5205,0.5165,0.5114,0.5142,0.5125,0.5137,0.5101,0.5015,0.5135,0.5135,0.5113,0.492,0.4898,0.4881,0.5032,0.5029,0.5027,0.4922,0,0.5305,0.5224,0.5241,0.5161,0.5126,0.5161,0.5119,0.5105,0.5106,0.5075,0.5076,0.504,0.5079,0.5069,0.5034,0.5033,0.4977,0.5041,0.4993,0.4992,0.4997,0.4863,0.4839,0.474,0.4908,0.4906,0.4904,0,0.5174,0.5151,0.5068,0.506,0.5045,0.5008,0.4981,0.4951,0.4935,0.4938,0.4919,0.4939,0.4891,0.494,0.4873,0.4917,0.4898,0.4895,0.4891,0.4887,0.4942,0.4855,0.4709,0.4694,0.4883,0.4885,0.4886,0,0.5076,0.5025,0.4969,0.4958,0.4947,0.4919,0.4913,0.49,0.4881,0.4857,0.4844,0.4814,0.4797,0.4773,0.4784,0.4819,0.4715,0.4765,0.4715,0.4715,0.4691,0.4692,0.454,0.468,0.468,0.468,0.468,0,0.4959,0.4907,0.4925,0.489,0.4833,0.4852,0.4794,0.4791,0.478,0.4744,0.4773,0.4739,0.4755,0.4722,0.473,0.4673,0.4665,0.4665,0.4668,0.4663,0.4663,0.465,0.4657,0.4676,0.4677,0.4678,0.4678,0,0.484,0.485,0.4792,0.4786,0.4783,0.4741,0.4735,0.4702,0.4706,0.4661,0.4651,0.4656,0.4618,0.4627,0.4585,0.4591,0.4519,0.453,0.4524,0.4527,0.4476,0.4481,0.431,0.4289,0.4443,0.4441,0.444,0,0.4765,0.4726,0.4716,0.4696,0.4688,0.4653,0.4634,0.4651,0.4629,0.4608,0.4578,0.4543,0.4516,0.4454,0.4453,0.4421,0.4432,0.4374,0.4427,0.4423,0.443,0.4432,0.4428,0.4363,0.4362,0.436,0.4359,0,0.463,0.4637,0.4609,0.4582,0.4558,0.4538,0.4519,0.45,0.4516,0.449,0.4453,0.4432,0.439,0.4354,0.4325,0.4317,0.434,0.4343,0.4329,0.4323,0.4321,0.4321,0.4495,0.4346,0.4348,0.4349,0.4349,0.435,0.4531,0.4498,0.4486,0.4453,0.4442,0.4424,0.4393,0.4393,0.4363,0.4331,0.4343,0.43,0.4284,0.4248,0.4236,0.4202,0.4223,0.4204,0.4199,0.4194,0.4187,0.4327,0.4197,0.4197,0.4197,0.4198,0.4198,0,0.4397,0.4392,0.4362,0.4336,0.431,0.4335,0.4316,0.4293,0.4255,0.4239,0.4213,0.4169,0.4135,0.4132,0.41,0.4073,0.4082,0.4064,0.4065,0.4063,0.417,0.4185,0.4056,0.4056,0.4056,0.4056,0.4056,0.4056,0.4325,0.427,0.4276,0.4215,0.421,0.4169,0.4156,0.4139,0.4127,0.4078,0.4051,0.4049,0.4038,0.4005,0.3975,0.3974,0.3961,0.3938,0.3941,0.4041,0.4056,0.4069,0.4083,0.3935,0.3935,0.3837,0.3836,0.3835]}]]